Find Starlink 4421

NORAD ID: 53488 Int'l Des: 2022-099 Owner: SPXS Country: US Constellation: starlink operational
LEOCIRCULARRETROGRADESSO

Live Position

Loading 3D Globe...

About Starlink 4421

Description loading...

Upcoming Passes

Passes for default location (London). Set your location on the main map for personalized predictions.

Altitude History

Loading altitude history...

Two-Line Element Set

1 53488U 22099Z 26106.58117458 -.00000279 00000-0 -15149-4 0 9998
2 53488 97.6020 228.6312 0001355 167.2559 192.8703 15.05646722201750
Epoch: Apr 16, 2026 • Age: 20 hours

Current Status

Altitude 552.9 km
Velocity 7.59 km/s
Sub-Earth Point 32.30°N, 62.6°E
Launch Date Aug 12, 2022
Age 3.6 years
Type internet

Technical Details

Classification Payload
Mass 300.00 kg
Dry Mass 275.00 kg
Total Mass 300.00 kg
Length 0.20 m
Diameter 2.80 m
Span 9.00 m
Shape Box + pan
Manufacturer SPXS
Bus Type Starlink
Phase Status In Orbit
Owner/State SPXS/US

Most Searched